Radiation Dose at Monitoring Post of Fukushima Daini Nuclear Power Station
Date,Time,MP-1(microSv/h),MP-2(microSv/h),MP-3(microSv/h),MP-4(microSv/h),MP-5(microSv/h),MP-6(microSv/h),MP-7(microSv/h),Wind Direction,Wind Velocity(m/s),Rain
2021/07/11,00:00,0.160,0.146,0.230,0.222,0.230,0.125,0.080,southeast,1.3,No
2021/07/11,00:10,0.158,0.146,0.227,0.221,0.228,0.124,0.079,-,CALM,No
2021/07/11,00:20,0.158,0.147,0.226,0.221,0.226,0.124,0.078,-,CALM,No
2021/07/11,00:30,0.159,0.145,0.227,0.218,0.228,0.124,0.078,east,0.7,No
2021/07/11,00:40,0.156,0.145,0.225,0.222,0.225,0.123,0.079,east,0.7,No
2021/07/11,00:50,0.158,0.144,0.226,0.220,0.227,0.123,0.077,east,1.0,No
2021/07/11,01:00,0.157,0.142,0.226,0.219,0.227,0.122,0.077,east,0.9,No
2021/07/11,01:10,0.155,0.145,0.224,0.220,0.224,0.121,0.077,east-northeast,1.0,No
2021/07/11,01:20,0.157,0.144,0.227,0.218,0.228,0.122,0.076,east-southeast,1.0,No
2021/07/11,01:30,0.156,0.144,0.226,0.220,0.226,0.122,0.077,southeast,1.0,No
2021/07/11,01:40,0.157,0.144,0.224,0.220,0.226,0.122,0.078,-,CALM,No
2021/07/11,01:50,0.158,0.143,0.227,0.218,0.227,0.123,0.076,south-southeast,0.6,No
2021/07/11,02:00,0.156,0.145,0.225,0.220,0.225,0.122,0.078,-,CALM,No
2021/07/11,02:10,0.156,0.143,0.226,0.219,0.225,0.121,0.077,-,CALM,No
2021/07/11,02:20,0.156,0.145,0.225,0.218,0.227,0.122,0.077,-,CALM,No
2021/07/11,02:30,0.155,0.144,0.224,0.220,0.225,0.122,0.077,north-northeast,0.7,No
2021/07/11,02:40,0.158,0.143,0.227,0.219,0.227,0.122,0.076,north-northwest,0.6,No
2021/07/11,02:50,0.157,0.144,0.225,0.219,0.227,0.122,0.078,north,0.6,No
2021/07/11,03:00,0.157,0.145,0.226,0.219,0.223,0.121,0.077,-,CALM,No
2021/07/11,03:10,0.157,0.144,0.227,0.218,0.226,0.122,0.077,-,CALM,No
2021/07/11,03:20,0.156,0.144,0.224,0.221,0.226,0.123,0.077,-,CALM,No
2021/07/11,03:30,0.156,0.142,0.227,0.220,0.224,0.120,0.077,-,CALM,No
2021/07/11,03:40,0.157,0.144,0.224,0.218,0.227,0.121,0.077,north,0.6,No
2021/07/11,03:50,0.156,0.144,0.226,0.221,0.226,0.123,0.077,-,CALM,No
2021/07/11,04:00,0.157,0.143,0.226,0.217,0.224,0.121,0.077,-,CALM,No
2021/07/11,04:10,0.157,0.144,0.224,0.220,0.227,0.122,0.077,-,CALM,No
2021/07/11,04:20,0.156,0.143,0.227,0.220,0.225,0.122,0.077,-,CALM,No
2021/07/11,04:30,0.158,0.143,0.225,0.218,0.226,0.121,0.077,-,CALM,No
2021/07/11,04:40,0.157,0.144,0.225,0.220,0.226,0.122,0.077,-,CALM,No
2021/07/11,04:50,0.155,0.142,0.225,0.219,0.223,0.122,0.077,east,0.8,No
2021/07/11,05:00,0.157,0.145,0.222,0.218,0.227,0.122,0.077,east,0.9,No
2021/07/11,05:10,0.156,0.143,0.226,0.219,0.226,0.122,0.077,-,CALM,No
2021/07/11,05:20,0.155,0.143,0.225,0.218,0.223,0.122,0.077,-,CALM,No
2021/07/11,05:30,0.158,0.144,0.224,0.219,0.229,0.122,0.077,southeast,0.7,No
2021/07/11,05:40,0.155,0.143,0.225,0.220,0.226,0.122,0.077,south,0.6,No
2021/07/11,05:50,0.157,0.146,0.224,0.219,0.224,0.122,0.076,south,0.9,No
2021/07/11,06:00,0.156,0.144,0.227,0.220,0.226,0.122,0.077,-,CALM,No
2021/07/11,06:10,0.156,0.144,0.226,0.219,0.224,0.121,0.078,south-southwest,0.9,No
2021/07/11,06:20,0.157,0.144,0.225,0.217,0.225,0.123,0.077,west-southwest,0.6,No
2021/07/11,06:30,0.158,0.144,0.227,0.220,0.228,0.121,0.078,-,CALM,No
2021/07/11,06:40,0.156,0.143,0.226,0.219,0.225,0.121,0.078,south-southwest,0.6,No
2021/07/11,06:50,0.157,0.144,0.224,0.218,0.223,0.122,0.077,south,0.6,No
2021/07/11,07:00,0.157,0.144,0.227,0.220,0.228,0.121,0.078,-,CALM,No
2021/07/11,07:10,0.155,0.144,0.227,0.221,0.226,0.122,0.077,-,CALM,No
2021/07/11,07:20,0.157,0.145,0.225,0.218,0.225,0.121,0.076,northeast,1.0,No
2021/07/11,07:30,0.157,0.144,0.225,0.219,0.224,0.122,0.078,northeast,0.6,No
2021/07/11,07:40,0.156,0.143,0.227,0.221,0.228,0.123,0.078,-,CALM,No
2021/07/11,07:50,0.156,0.144,0.225,0.220,0.226,0.122,0.077,-,CALM,No
2021/07/11,08:00,0.158,0.144,0.223,0.218,0.226,0.121,0.077,-,CALM,No
2021/07/11,08:10,0.156,0.144,0.225,0.219,0.225,0.122,0.078,south,0.6,No
2021/07/11,08:20,0.156,0.143,0.227,0.220,0.227,0.122,0.078,south-southwest,0.6,No
2021/07/11,08:30,0.157,0.143,0.225,0.219,0.227,0.121,0.077,south-southeast,1.3,No
2021/07/11,08:40,0.158,0.145,0.225,0.219,0.226,0.122,0.076,south,1.2,No
2021/07/11,08:50,0.157,0.144,0.223,0.217,0.224,0.121,0.077,east-southeast,1.9,No
2021/07/11,09:00,0.156,0.143,0.226,0.220,0.225,0.121,0.077,east-southeast,1.9,No
2021/07/11,09:10,0.158,0.145,0.227,0.220,0.228,0.122,0.078,east-southeast,0.9,No
2021/07/11,09:20,0.157,0.145,0.225,0.219,0.227,0.122,0.077,southeast,1.2,No
2021/07/11,09:30,0.155,0.144,0.226,0.218,0.223,0.123,0.077,south-southeast,1.1,No
2021/07/11,09:40,0.156,0.143,0.229,0.222,0.225,0.123,0.077,southeast,1.0,No
2021/07/11,09:50,0.157,0.145,0.227,0.221,0.228,0.123,0.077,south-southeast,0.9,No
2021/07/11,10:00,0.156,0.145,0.225,0.219,0.228,0.122,0.076,south-southeast,0.7,No
2021/07/11,10:10,0.156,0.144,0.224,0.218,0.226,0.122,0.077,south,0.9,No
2021/07/11,10:20,0.156,0.143,0.228,0.219,0.226,0.123,0.077,-,CALM,Yes
2021/07/11,10:30,0.158,0.145,0.228,0.221,0.227,0.122,0.078,-,CALM,Yes
2021/07/11,10:40,0.158,0.146,0.227,0.220,0.229,0.123,0.077,northwest,1.5,Yes
2021/07/11,10:50,0.158,0.146,0.228,0.219,0.227,0.124,0.078,northwest,2.6,Yes
2021/07/11,11:00,0.159,0.147,0.229,0.223,0.227,0.122,0.078,west-northwest,0.7,No
2021/07/11,11:10,0.159,0.146,0.226,0.220,0.230,0.122,0.077,-,CALM,Yes
2021/07/11,11:20,0.158,0.147,0.227,0.221,0.228,0.123,0.079,north-northeast,1.2,Yes
2021/07/11,11:30,0.161,0.150,0.232,0.224,0.227,0.125,0.081,northeast,1.3,Yes
2021/07/11,11:40,0.159,0.148,0.230,0.223,0.231,0.124,0.079,east,1.9,Yes
2021/07/11,11:50,0.159,0.147,0.229,0.221,0.229,0.124,0.079,south-southeast,1.3,No
2021/07/11,12:00,0.160,0.148,0.230,0.223,0.226,0.124,0.079,south-southeast,2.3,No
2021/07/11,12:10,0.157,0.146,0.227,0.221,0.229,0.123,0.079,south-southeast,2.8,No
2021/07/11,12:20,0.157,0.145,0.229,0.220,0.228,0.123,0.079,south,2.0,No
2021/07/11,12:30,0.159,0.147,0.228,0.222,0.226,0.124,0.078,south,1.9,No
2021/07/11,12:40,0.158,0.145,0.225,0.221,0.224,0.122,0.078,south-southwest,2.1,No
2021/07/11,12:50,0.157,0.144,0.224,0.218,0.225,0.122,0.078,west-southwest,1.2,No
2021/07/11,13:00,0.156,0.143,0.225,0.218,0.228,0.123,0.077,west-northwest,0.6,No
2021/07/11,13:10,0.157,0.144,0.228,0.219,0.226,0.122,0.078,northwest,0.6,No
2021/07/11,13:20,0.158,0.145,0.227,0.220,0.225,0.122,0.077,-,CALM,No
2021/07/11,13:30,0.157,0.144,0.226,0.220,0.224,0.121,0.078,-,CALM,No
2021/07/11,13:40,0.156,0.143,0.224,0.218,0.224,0.123,0.078,-,CALM,No
2021/07/11,13:50,0.156,0.144,0.225,0.218,0.228,0.123,0.077,west-southwest,0.7,No
2021/07/11,14:00,0.158,0.145,0.226,0.220,0.228,0.122,0.078,-,CALM,No
2021/07/11,14:10,0.157,0.144,0.227,0.221,0.226,0.122,0.078,south,0.7,Yes
2021/07/11,14:20,0.157,0.145,0.226,0.220,0.225,0.125,0.080,south-southwest,1.7,Yes
2021/07/11,14:30,0.161,0.149,0.230,0.223,0.233,0.127,0.082,south,2.3,Yes
2021/07/11,14:40,0.164,0.151,0.233,0.227,0.231,0.129,0.084,south,3.2,Yes
2021/07/11,14:50,0.162,0.150,0.231,0.225,0.230,0.129,0.085,south,3.7,Yes
2021/07/11,15:00,0.162,0.151,0.232,0.223,0.232,0.129,0.084,south,4.0,Yes
2021/07/11,15:10,0.163,0.150,0.233,0.226,0.233,0.127,0.083,south,4.6,Yes
2021/07/11,15:20,0.161,0.148,0.229,0.224,0.229,0.128,0.084,south,3.6,Yes
2021/07/11,15:30,0.160,0.148,0.228,0.223,0.229,0.127,0.082,south-southwest,3.5,No
2021/07/11,15:40,0.161,0.149,0.231,0.224,0.230,0.126,0.081,south-southwest,3.6,Yes
2021/07/11,15:50,0.161,0.148,0.231,0.223,0.230,0.125,0.081,south-southwest,2.3,Yes
2021/07/11,16:00,0.159,0.146,0.228,0.222,0.228,0.125,0.081,south,1.2,Yes
2021/07/11,16:10,0.158,0.147,0.227,0.219,0.226,0.126,0.080,south-southeast,0.9,Yes
2021/07/11,16:20,0.161,0.147,0.231,0.223,0.231,0.126,0.080,-,CALM,No
2021/07/11,16:30,0.159,0.147,0.228,0.224,0.229,0.125,0.080,-,CALM,No
2021/07/11,16:40,0.157,0.145,0.227,0.221,0.228,0.124,0.080,-,CALM,No
2021/07/11,16:50,0.159,0.147,0.226,0.222,0.227,0.125,0.079,-,CALM,No
2021/07/11,17:00,0.159,0.146,0.229,0.222,0.230,0.123,0.078,north,1.7,No
2021/07/11,17:10,0.157,0.145,0.227,0.221,0.228,0.124,0.079,north,1.9,Yes
2021/07/11,17:20,0.158,0.146,0.227,0.220,0.226,0.125,0.078,-,CALM,Yes
2021/07/11,17:30,0.162,0.148,0.231,0.224,0.231,0.126,0.082,-,CALM,Yes
2021/07/11,17:40,0.163,0.150,0.232,0.225,0.234,0.129,0.084,north-northwest,5.8,Yes
2021/07/11,17:50,0.164,0.153,0.234,0.226,0.233,0.133,0.087,west-southwest,19.0,Yes
2021/07/11,18:00,0.168,0.156,0.239,0.231,0.238,0.136,0.091,west-northwest,4.4,Yes
2021/07/11,18:10,0.170,0.158,0.238,0.233,0.241,0.138,0.095,southwest,5.8,Yes
2021/07/11,18:20,0.171,0.161,0.242,0.234,0.239,0.140,0.096,-,CALM,Yes
2021/07/11,18:30,0.174,0.162,0.245,0.238,0.246,0.143,0.099,-,CALM,Yes
2021/07/11,18:40,0.174,0.163,0.243,0.237,0.246,0.144,0.099,northwest,2.1,Yes
2021/07/11,18:50,0.175,0.164,0.246,0.237,0.243,0.142,0.098,northwest,3.9,Yes
2021/07/11,19:00,0.174,0.162,0.242,0.238,0.245,0.141,0.097,northwest,1.5,Yes
2021/07/11,19:10,0.170,0.159,0.239,0.234,0.241,0.138,0.093,northwest,1.9,No
2021/07/11,19:20,0.168,0.158,0.238,0.231,0.236,0.137,0.092,west,0.9,No
2021/07/11,19:30,0.168,0.154,0.236,0.229,0.237,0.133,0.090,southwest,0.8,No
2021/07/11,19:40,0.163,0.153,0.232,0.227,0.234,0.132,0.087,-,CALM,No
2021/07/11,19:50,0.163,0.151,0.232,0.226,0.232,0.130,0.086,west-southwest,1.8,No
2021/07/11,20:00,0.162,0.149,0.230,0.225,0.233,0.127,0.084,south-southwest,0.6,No
2021/07/11,20:10,0.160,0.149,0.230,0.222,0.230,0.128,0.083,-,CALM,No
2021/07/11,20:20,0.160,0.147,0.229,0.224,0.229,0.126,0.083,south-southeast,0.8,No
2021/07/11,20:30,0.159,0.148,0.226,0.222,0.231,0.125,0.082,south-southeast,1.2,No
2021/07/11,20:40,0.157,0.146,0.228,0.222,0.229,0.125,0.081,south,1.5,No
2021/07/11,20:50,0.159,0.145,0.226,0.221,0.228,0.124,0.080,southeast,0.6,No
2021/07/11,21:00,0.159,0.146,0.224,0.220,0.230,0.123,0.079,-,CALM,No
2021/07/11,21:10,0.157,0.145,0.227,0.220,0.225,0.124,0.079,south-southwest,1.1,No
2021/07/11,21:20,0.158,0.145,0.225,0.221,0.227,0.123,0.080,south,0.7,No
2021/07/11,21:30,0.157,0.146,0.226,0.219,0.229,0.123,0.079,south,1.3,No
2021/07/11,21:40,0.156,0.144,0.226,0.221,0.226,0.123,0.079,south,1.1,Yes
2021/07/11,21:50,0.157,0.145,0.224,0.220,0.228,0.123,0.080,south,1.2,No
2021/07/11,22:00,0.156,0.146,0.227,0.219,0.227,0.123,0.078,southeast,1.0,No
2021/07/11,22:10,0.157,0.143,0.225,0.220,0.225,0.124,0.080,southeast,0.6,No
2021/07/11,22:20,0.157,0.145,0.224,0.218,0.228,0.123,0.079,south,0.7,No
2021/07/11,22:30,0.157,0.145,0.228,0.219,0.227,0.122,0.078,south-southwest,1.6,No
2021/07/11,22:40,0.157,0.144,0.225,0.220,0.224,0.123,0.079,southwest,2.6,No
2021/07/11,22:50,0.157,0.145,0.225,0.217,0.228,0.123,0.078,southwest,2.5,No
2021/07/11,23:00,0.157,0.144,0.225,0.220,0.226,0.122,0.078,southwest,2.3,No
2021/07/11,23:10,0.156,0.144,0.224,0.220,0.224,0.123,0.079,southwest,2.3,No
2021/07/11,23:20,0.157,0.144,0.227,0.218,0.227,0.122,0.078,southwest,2.4,No
2021/07/11,23:30,0.156,0.144,0.224,0.220,0.225,0.122,0.078,southwest,1.8,No
2021/07/11,23:40,0.157,0.145,0.225,0.218,0.225,0.122,0.078,south-southwest,1.6,No
2021/07/11,23:50,0.157,0.144,0.227,0.218,0.227,0.122,0.077,south-southeast,1.9,Yes
